Time,TemperatureF,DewpointF,PressureIn,WindDirection,WindDirectionDegrees,WindSpeedMPH,WindSpeedGustMPH,Humidity,HourlyPrecipIn,Conditions,Clouds,dailyrainin,SoftwareType,DateUTC
2013-06-12 00:00:00,69.0,62.2,29.87,West,269,4.0,7.0,79,0.00,,---,0.00,VWS V14.00,2013-06-12 04:00:00,
2013-06-12 00:01:00,68.9,62.1,29.87,West,265,4.0,5.0,79,0.00,,---,0.00,VWS V14.00,2013-06-12 04:01:00,
2013-06-12 00:06:00,68.8,62.4,29.86,West,267,4.0,5.0,80,0.00,,---,0.00,VWS V14.00,2013-06-12 04:06:00,
2013-06-12 00:16:00,68.6,62.2,29.87,North,360,4.0,6.0,80,0.00,,---,0.00,VWS V14.00,2013-06-12 04:16:00,
2013-06-12 00:21:00,68.2,62.2,29.87,North,5,0.0,6.0,81,0.00,,---,0.00,VWS V14.00,2013-06-12 04:21:00,
2013-06-12 00:26:00,67.9,62.2,29.87,NNW,347,0.0,6.0,82,0.00,,---,0.00,VWS V14.00,2013-06-12 04:26:00,
2013-06-12 00:30:00,67.9,61.9,29.87,NNW,348,0.0,6.0,81,0.00,,---,0.00,VWS V14.00,2013-06-12 04:30:00,
2013-06-12 00:31:00,67.7,62.0,29.87,NNW,347,0.0,0.0,82,0.00,,---,0.00,VWS V14.00,2013-06-12 04:31:00,
2013-06-12 00:36:00,67.4,62.1,29.88,NNW,347,0.0,1.0,83,0.00,,---,0.00,VWS V14.00,2013-06-12 04:36:00,
2013-06-12 00:41:00,67.1,61.8,29.88,NNW,347,0.0,1.0,83,0.00,,---,0.00,VWS V14.00,2013-06-12 04:41:00,
2013-06-12 00:46:00,66.8,62.2,29.87,NNW,347,0.0,3.0,85,0.00,,---,0.00,VWS V14.00,2013-06-12 04:46:00,
2013-06-12 00:51:00,66.5,62.2,29.88,NNW,347,1.0,3.0,86,0.00,,---,0.00,VWS V14.00,2013-06-12 04:51:00,
2013-06-12 00:56:00,66.2,62.2,29.88,NNW,347,2.0,3.0,87,0.00,,---,0.00,VWS V14.00,2013-06-12 04:56:00,
2013-06-12 01:00:00,66.2,62.2,29.87,NNW,347,0.0,3.0,87,0.00,,---,0.00,VWS V14.00,2013-06-12 05:00:00,
2013-06-12 01:01:00,66.0,62.3,29.88,NNW,347,1.0,3.0,88,0.00,,---,0.00,VWS V14.00,2013-06-12 05:01:00,
2013-06-12 01:07:00,65.7,62.4,29.88,NNW,347,0.0,4.0,89,0.00,,---,0.00,VWS V14.00,2013-06-12 05:07:00,
2013-06-12 01:12:00,65.4,62.4,29.88,NNW,347,0.0,4.0,90,0.00,,---,0.00,VWS V14.00,2013-06-12 05:12:00,
2013-06-12 01:17:00,65.1,62.4,29.88,NNW,347,0.0,4.0,91,0.00,,---,0.00,VWS V14.00,2013-06-12 05:17:00,
2013-06-12 01:22:00,64.8,62.1,29.88,NNW,347,1.0,4.0,91,0.00,,---,0.00,VWS V14.00,2013-06-12 05:22:00,
2013-06-12 01:27:00,64.6,62.2,29.88,NNW,347,2.0,4.0,92,0.00,,---,0.00,VWS V14.00,2013-06-12 05:27:00,
2013-06-12 01:30:00,64.5,62.1,29.88,NNW,348,0.0,4.0,92,0.00,,---,0.00,VWS V14.00,2013-06-12 05:30:00,
2013-06-12 01:32:00,64.3,61.9,29.88,NNW,348,0.0,4.0,92,0.00,,---,0.00,VWS V14.00,2013-06-12 05:32:00,
2013-06-12 01:37:00,64.1,61.7,29.87,NNW,348,0.0,4.0,92,0.00,,---,0.00,VWS V14.00,2013-06-12 05:37:00,
2013-06-12 01:42:00,63.9,61.8,29.87,NNW,348,0.0,4.0,93,0.00,,---,0.00,VWS V14.00,2013-06-12 05:42:00,
2013-06-12 01:47:00,63.7,61.6,29.87,NNW,348,2.0,4.0,93,0.00,,---,0.00,VWS V14.00,2013-06-12 05:47:00,
2013-06-12 01:52:00,63.6,61.5,29.87,NNW,348,0.0,4.0,93,0.00,,---,0.00,VWS V14.00,2013-06-12 05:52:00,
2013-06-12 01:57:00,63.5,61.8,29.88,NNW,348,0.0,4.0,94,0.00,,---,0.00,VWS V14.00,2013-06-12 05:57:00,
2013-06-12 02:00:00,63.5,61.8,29.88,NNW,348,0.0,4.0,94,0.00,,---,0.00,VWS V14.00,2013-06-12 06:00:00,
2013-06-12 02:02:00,63.4,61.7,29.88,NNW,348,0.0,1.0,94,0.00,,---,0.00,VWS V14.00,2013-06-12 06:02:00,
2013-06-12 02:07:00,63.2,61.5,29.88,NNW,348,0.0,3.0,94,0.00,,---,0.00,VWS V14.00,2013-06-12 06:07:00,
2013-06-12 02:12:00,63.0,61.2,29.88,NNW,348,1.0,3.0,94,0.00,,---,0.00,VWS V14.00,2013-06-12 06:12:00,
2013-06-12 02:17:00,62.9,61.2,29.87,NNW,348,0.0,3.0,94,0.00,,---,0.00,VWS V14.00,2013-06-12 06:17:00,
2013-06-12 02:22:00,62.9,61.5,29.87,NNW,348,0.0,3.0,95,0.00,,---,0.00,VWS V14.00,2013-06-12 06:22:00,
2013-06-12 02:27:00,62.8,61.3,29.87,NNW,348,0.0,3.0,95,0.00,,---,0.00,VWS V14.00,2013-06-12 06:27:00,
2013-06-12 02:30:00,62.8,61.3,29.87,NNW,348,0.0,3.0,95,0.00,,---,0.00,VWS V14.00,2013-06-12 06:30:00,
2013-06-12 02:32:00,62.7,61.2,29.87,NNW,348,1.0,3.0,95,0.00,,---,0.00,VWS V14.00,2013-06-12 06:32:00,
2013-06-12 02:37:00,62.6,61.2,29.87,NNW,348,0.0,3.0,95,0.00,,---,0.00,VWS V14.00,2013-06-12 06:37:00,
2013-06-12 02:42:00,62.6,61.2,29.87,NNW,348,1.0,3.0,95,0.00,,---,0.00,VWS V14.00,2013-06-12 06:42:00,
2013-06-12 02:47:00,62.4,61.0,29.87,North,5,0.0,4.0,95,0.00,,---,0.00,VWS V14.00,2013-06-12 06:47:00,
2013-06-12 02:52:00,62.3,60.8,29.86,North,9,1.0,4.0,95,0.00,,---,0.00,VWS V14.00,2013-06-12 06:52:00,
2013-06-12 02:57:00,62.2,61.0,29.87,North,5,1.0,4.0,96,0.00,,---,0.00,VWS V14.00,2013-06-12 06:57:00,
2013-06-12 03:00:00,62.2,61.0,29.86,North,9,2.0,4.0,96,0.00,,---,0.00,VWS V14.00,2013-06-12 07:00:00,
2013-06-12 03:02:00,62.3,61.2,29.86,North,5,0.0,3.0,96,0.00,,---,0.00,VWS V14.00,2013-06-12 07:02:00,
2013-06-12 03:07:00,62.4,61.2,29.86,North,5,2.0,3.0,96,0.00,,---,0.00,VWS V14.00,2013-06-12 07:07:00,
2013-06-12 03:12:00,62.5,61.3,29.86,North,5,2.0,3.0,96,0.00,,---,0.00,VWS V14.00,2013-06-12 07:12:00,
2013-06-12 03:17:00,62.7,61.5,29.87,North,5,2.0,4.0,96,0.00,,---,0.00,VWS V14.00,2013-06-12 07:17:00,
2013-06-12 03:22:00,62.8,61.7,29.87,North,9,1.0,4.0,96,0.00,,---,0.00,VWS V14.00,2013-06-12 07:22:00,
2013-06-12 03:27:00,62.8,61.7,29.87,North,9,0.0,4.0,96,0.00,,---,0.00,VWS V14.00,2013-06-12 07:27:00,
2013-06-12 03:30:00,62.8,61.7,29.87,North,9,0.0,4.0,96,0.00,,---,0.00,VWS V14.00,2013-06-12 07:30:00,
2013-06-12 03:32:00,62.7,61.5,29.87,North,5,1.0,2.0,96,0.00,,---,0.00,VWS V14.00,2013-06-12 07:32:00,
2013-06-12 03:37:00,62.7,61.5,29.87,North,5,0.0,2.0,96,0.00,,---,0.00,VWS V14.00,2013-06-12 07:37:00,
2013-06-12 03:42:00,62.7,61.5,29.86,ENE,74,2.0,3.0,96,0.00,,---,0.00,VWS V14.00,2013-06-12 07:42:00,
2013-06-12 03:47:00,62.7,61.5,29.86,ENE,63,1.0,3.0,96,0.00,,---,0.00,VWS V14.00,2013-06-12 07:47:00,
2013-06-12 03:52:00,62.7,61.5,29.86,ENE,60,0.0,3.0,96,0.00,,---,0.00,VWS V14.00,2013-06-12 07:52:00,
2013-06-12 03:57:00,62.7,61.5,29.86,ENE,60,0.0,3.0,96,0.00,,---,0.00,VWS V14.00,2013-06-12 07:57:00,
2013-06-12 04:00:00,62.7,61.5,29.86,ENE,60,0.0,3.0,96,0.00,,---,0.00,VWS V14.00,2013-06-12 08:00:00,
2013-06-12 04:02:00,62.7,61.5,29.86,ENE,59,1.0,2.0,96,0.00,,---,0.00,VWS V14.00,2013-06-12 08:02:00,
2013-06-12 04:07:00,62.6,61.5,29.87,ENE,60,0.0,2.0,96,0.00,,---,0.00,VWS V14.00,2013-06-12 08:07:00,
2013-06-12 04:12:00,62.5,61.3,29.87,ENE,60,0.0,2.0,96,0.00,,---,0.00,VWS V14.00,2013-06-12 08:12:00,
2013-06-12 04:17:00,62.5,61.3,29.88,ENE,60,0.0,2.0,96,0.00,,---,0.00,VWS V14.00,2013-06-12 08:17:00,
2013-06-12 04:22:00,62.3,61.2,29.88,ENE,60,0.0,2.0,96,0.00,,---,0.00,VWS V14.00,2013-06-12 08:22:00,
2013-06-12 04:27:00,62.3,61.2,29.89,ENE,60,0.0,0.0,96,0.00,,---,0.00,VWS V14.00,2013-06-12 08:27:00,
2013-06-12 04:30:00,62.3,61.2,29.89,ENE,60,0.0,2.0,96,0.00,,---,0.00,VWS V14.00,2013-06-12 08:30:00,
2013-06-12 04:32:00,62.4,61.2,29.89,ENE,59,0.0,2.0,96,0.00,,---,0.00,VWS V14.00,2013-06-12 08:32:00,
2013-06-12 04:37:00,62.3,61.2,29.89,ENE,59,0.0,3.0,96,0.00,,---,0.00,VWS V14.00,2013-06-12 08:37:00,
2013-06-12 04:42:00,62.3,61.2,29.90,ENE,59,2.0,3.0,96,0.00,,---,0.00,VWS V14.00,2013-06-12 08:42:00,
2013-06-12 04:47:00,62.3,61.2,29.90,ENE,59,0.0,3.0,96,0.00,,---,0.00,VWS V14.00,2013-06-12 08:47:00,
2013-06-12 04:52:00,62.3,61.4,29.90,ENE,59,0.0,3.0,97,0.00,,---,0.00,VWS V14.00,2013-06-12 08:52:00,
2013-06-12 04:57:00,62.3,61.4,29.90,ENE,59,1.0,1.0,97,0.00,,---,0.00,VWS V14.00,2013-06-12 08:57:00,
2013-06-12 05:00:00,62.3,61.4,29.90,ENE,59,0.0,3.0,97,0.00,,---,0.00,VWS V14.00,2013-06-12 09:00:00,
2013-06-12 05:02:00,62.3,61.4,29.90,NE,34,0.0,3.0,97,0.00,,---,0.00,VWS V14.00,2013-06-12 09:02:00,
2013-06-12 05:07:00,62.3,61.4,29.90,NE,35,0.0,3.0,97,0.00,,---,0.00,VWS V14.00,2013-06-12 09:07:00,
2013-06-12 05:12:00,62.3,61.4,29.91,NE,34,0.0,3.0,97,0.00,,---,0.00,VWS V14.00,2013-06-12 09:12:00,
2013-06-12 05:17:00,62.4,61.5,29.90,NE,34,0.0,3.0,97,0.00,,---,0.00,VWS V14.00,2013-06-12 09:17:00,
2013-06-12 05:22:00,62.3,61.4,29.90,NE,35,0.0,3.0,97,0.00,,---,0.00,VWS V14.00,2013-06-12 09:22:00,
2013-06-12 05:27:00,62.3,61.4,29.90,NE,35,0.0,1.0,97,0.00,,---,0.00,VWS V14.00,2013-06-12 09:27:00,
2013-06-12 05:30:00,62.3,61.4,29.90,NE,35,0.0,3.0,97,0.00,,---,0.00,VWS V14.00,2013-06-12 09:30:00,
2013-06-12 05:32:00,62.2,61.3,29.90,NE,35,0.0,2.0,97,0.00,,---,0.00,VWS V14.00,2013-06-12 09:32:00,
2013-06-12 05:37:00,62.1,61.2,29.90,NE,34,0.0,2.0,97,0.00,,---,0.00,VWS V14.00,2013-06-12 09:37:00,
2013-06-12 05:42:00,62.1,61.2,29.90,NE,35,0.0,2.0,97,0.00,,---,0.00,VWS V14.00,2013-06-12 09:42:00,
2013-06-12 05:47:00,62.0,61.1,29.90,NE,34,0.0,2.0,97,0.00,,---,0.00,VWS V14.00,2013-06-12 09:47:00,
2013-06-12 05:52:00,61.9,61.0,29.90,NE,34,0.0,2.0,97,0.00,,---,0.00,VWS V14.00,2013-06-12 09:52:00,
2013-06-12 05:57:00,61.8,60.9,29.90,NE,34,0.0,0.0,97,0.00,,---,0.00,VWS V14.00,2013-06-12 09:57:00,
2013-06-12 06:00:00,61.8,60.9,29.90,NE,34,0.0,2.0,97,0.00,,---,0.00,VWS V14.00,2013-06-12 10:00:00,
2013-06-12 06:02:00,61.8,60.9,29.90,NE,35,0.0,0.0,97,0.00,,---,0.00,VWS V14.00,2013-06-12 10:02:00,
2013-06-12 06:07:00,61.8,60.9,29.90,NE,35,0.0,0.0,97,0.00,,---,0.00,VWS V14.00,2013-06-12 10:07:00,
2013-06-12 06:12:00,61.8,60.9,29.91,NE,35,1.0,1.0,97,0.00,,---,0.00,VWS V14.00,2013-06-12 10:12:00,
2013-06-12 06:17:00,61.8,60.9,29.91,NE,35,0.0,2.0,97,0.00,,---,0.00,VWS V14.00,2013-06-12 10:17:00,
2013-06-12 06:22:00,61.7,60.8,29.91,NE,34,2.0,3.0,97,0.00,,---,0.00,VWS V14.00,2013-06-12 10:22:00,
2013-06-12 06:27:00,61.6,60.7,29.91,NE,35,1.0,1.0,97,0.00,,---,0.00,VWS V14.00,2013-06-12 10:27:00,
2013-06-12 06:30:00,61.6,60.7,29.91,NE,35,1.0,3.0,97,0.00,,---,0.00,VWS V14.00,2013-06-12 10:30:00,
2013-06-12 06:32:00,61.6,60.7,29.90,NE,35,1.0,3.0,97,0.00,,---,0.00,VWS V14.00,2013-06-12 10:32:00,
2013-06-12 06:37:00,61.6,60.7,29.90,NE,35,0.0,3.0,97,0.00,,---,0.00,VWS V14.00,2013-06-12 10:37:00,
2013-06-12 06:42:00,61.5,60.6,29.90,NE,34,0.0,4.0,97,0.00,,---,0.00,VWS V14.00,2013-06-12 10:42:00,
2013-06-12 06:47:00,61.6,60.7,29.90,NE,35,0.0,4.0,97,0.00,,---,0.00,VWS V14.00,2013-06-12 10:47:00,
2013-06-12 06:52:00,61.6,60.7,29.91,NE,35,0.0,4.0,97,0.00,,---,0.00,VWS V14.00,2013-06-12 10:52:00,
2013-06-12 06:57:00,61.6,60.7,29.91,NE,35,0.0,2.0,97,0.00,,---,0.00,VWS V14.00,2013-06-12 10:57:00,
2013-06-12 07:00:00,61.6,60.7,29.91,NE,34,2.0,4.0,97,0.00,,---,0.00,VWS V14.00,2013-06-12 11:00:00,
2013-06-12 07:02:00,61.4,60.5,29.91,NE,34,0.0,3.0,97,0.00,,---,0.00,VWS V14.00,2013-06-12 11:02:00,
2013-06-12 07:07:00,61.5,60.6,29.90,NE,35,0.0,3.0,97,0.00,,---,0.00,VWS V14.00,2013-06-12 11:07:00,
2013-06-12 07:12:00,61.6,60.7,29.90,NE,35,0.0,3.0,97,0.00,,---,0.00,VWS V14.00,2013-06-12 11:12:00,
2013-06-12 07:17:00,61.7,60.8,29.90,NE,35,1.0,3.0,97,0.00,,---,0.00,VWS V14.00,2013-06-12 11:17:00,
2013-06-12 07:22:00,61.7,60.8,29.89,NE,34,0.0,3.0,97,0.00,,---,0.00,VWS V14.00,2013-06-12 11:22:00,
2013-06-12 07:27:00,61.8,60.9,29.90,NE,35,0.0,0.0,97,0.00,,---,0.00,VWS V14.00,2013-06-12 11:27:00,
2013-06-12 07:30:00,61.8,60.9,29.90,NE,35,0.0,3.0,97,0.00,,---,0.00,VWS V14.00,2013-06-12 11:30:00,
2013-06-12 07:33:00,61.9,61.0,29.90,NE,35,0.0,0.0,97,0.00,,---,0.00,VWS V14.00,2013-06-12 11:33:00,
2013-06-12 07:38:00,61.8,60.9,29.90,NE,35,0.0,0.0,97,0.00,,---,0.00,VWS V14.00,2013-06-12 11:38:00,
2013-06-12 07:43:00,61.8,60.9,29.91,NE,35,0.0,2.0,97,0.00,,---,0.00,VWS V14.00,2013-06-12 11:43:00,
2013-06-12 07:48:00,61.7,60.8,29.92,NE,35,0.0,2.0,97,0.00,,---,0.00,VWS V14.00,2013-06-12 11:48:00,
2013-06-12 07:53:00,61.7,60.8,29.91,NE,34,4.0,4.0,97,0.00,,---,0.00,VWS V14.00,2013-06-12 11:53:00,
2013-06-12 07:58:00,61.6,60.7,29.90,NE,36,0.0,0.0,97,0.00,,---,0.00,VWS V14.00,2013-06-12 11:58:00,
2013-06-12 08:00:00,61.7,60.8,29.91,NE,35,0.0,4.0,97,0.00,,---,0.00,VWS V14.00,2013-06-12 12:00:00,
2013-06-12 08:03:00,61.8,60.9,29.91,NE,35,0.0,1.0,97,0.00,,---,0.00,VWS V14.00,2013-06-12 12:03:00,
2013-06-12 08:08:00,62.0,61.1,29.91,NE,34,0.0,1.0,97,0.00,,---,0.00,VWS V14.00,2013-06-12 12:08:00,
2013-06-12 08:13:00,62.2,61.3,29.91,NE,34,0.0,1.0,97,0.00,,---,0.00,VWS V14.00,2013-06-12 12:13:00,
2013-06-12 08:18:00,62.3,61.4,29.92,NE,34,0.0,1.0,97,0.00,,---,0.00,VWS V14.00,2013-06-12 12:18:00,
2013-06-12 08:23:00,62.3,61.4,29.91,NE,34,0.0,2.0,97,0.00,,---,0.00,VWS V14.00,2013-06-12 12:23:00,
2013-06-12 08:28:00,62.1,61.2,29.91,NE,35,0.0,2.0,97,0.00,,---,0.00,VWS V14.00,2013-06-12 12:28:00,
2013-06-12 08:30:00,62.2,61.3,29.91,NE,35,0.0,2.0,97,0.00,,---,0.00,VWS V14.00,2013-06-12 12:30:00,
2013-06-12 08:33:00,62.3,61.4,29.91,NE,35,0.0,2.0,97,0.00,,---,0.00,VWS V14.00,2013-06-12 12:33:00,
2013-06-12 08:38:00,62.6,61.7,29.91,NE,35,0.0,2.0,97,0.00,,---,0.00,VWS V14.00,2013-06-12 12:38:00,
2013-06-12 08:43:00,62.7,61.8,29.91,NE,35,0.0,2.0,97,0.00,,---,0.00,VWS V14.00,2013-06-12 12:43:00,
2013-06-12 08:48:00,62.8,61.9,29.91,NE,35,0.0,2.0,97,0.00,,---,0.00,VWS V14.00,2013-06-12 12:48:00,
2013-06-12 08:53:00,62.9,62.0,29.91,NE,34,1.0,2.0,97,0.00,,---,0.00,VWS V14.00,2013-06-12 12:53:00,
2013-06-12 08:58:00,63.0,62.1,29.92,NE,35,0.0,0.0,97,0.00,,---,0.00,VWS V14.00,2013-06-12 12:58:00,
2013-06-12 09:00:00,62.9,62.0,29.91,NE,35,0.0,2.0,97,0.00,,---,0.00,VWS V14.00,2013-06-12 13:00:00,
2013-06-12 09:03:00,63.1,62.2,29.92,NE,34,0.0,2.0,97,0.00,,---,0.00,VWS V14.00,2013-06-12 13:03:00,
2013-06-12 09:08:00,63.3,62.4,29.92,NE,35,0.0,2.0,97,0.00,,---,0.00,VWS V14.00,2013-06-12 13:08:00,
2013-06-12 09:13:00,63.6,62.7,29.92,NE,35,1.0,2.0,97,0.00,,---,0.00,VWS V14.00,2013-06-12 13:13:00,
2013-06-12 09:18:00,63.8,62.9,29.92,NE,35,0.0,2.0,97,0.00,,---,0.00,VWS V14.00,2013-06-12 13:18:00,
2013-06-12 09:23:00,63.8,62.9,29.92,NE,34,0.0,2.0,97,0.00,,---,0.00,VWS V14.00,2013-06-12 13:23:00,
2013-06-12 09:28:00,64.1,63.2,29.92,NE,34,0.0,1.0,97,0.00,,---,0.00,VWS V14.00,2013-06-12 13:28:00,
2013-06-12 09:30:00,64.0,63.1,29.92,NE,34,0.0,2.0,97,0.00,,---,0.00,VWS V14.00,2013-06-12 13:30:00,
2013-06-12 09:33:00,64.3,63.4,29.91,NE,35,0.0,3.0,97,0.00,,---,0.00,VWS V14.00,2013-06-12 13:33:00,
2013-06-12 09:38:00,64.5,63.6,29.91,NE,35,0.0,3.0,97,0.00,,---,0.00,VWS V14.00,2013-06-12 13:38:00,
2013-06-12 09:43:00,64.9,64.0,29.91,NE,34,0.0,3.0,97,0.00,,---,0.00,VWS V14.00,2013-06-12 13:43:00,
2013-06-12 09:48:00,65.0,64.1,29.91,NE,34,2.0,3.0,97,0.00,,---,0.00,VWS V14.00,2013-06-12 13:48:00,
2013-06-12 09:53:00,65.2,64.3,29.91,NE,35,0.0,3.0,97,0.00,,---,0.00,VWS V14.00,2013-06-12 13:53:00,
2013-06-12 09:58:00,65.6,64.7,29.91,NE,35,1.0,1.0,97,0.00,,---,0.00,VWS V14.00,2013-06-12 13:58:00,
2013-06-12 10:00:00,65.5,64.6,29.91,NE,35,0.0,3.0,97,0.00,,---,0.00,VWS V14.00,2013-06-12 14:00:00,
2013-06-12 10:03:00,66.0,64.8,29.91,NE,34,2.0,3.0,96,0.00,,---,0.00,VWS V14.00,2013-06-12 14:03:00,
2013-06-12 10:08:00,66.4,65.2,29.92,NE,34,0.0,3.0,96,0.00,,---,0.00,VWS V14.00,2013-06-12 14:08:00,
2013-06-12 10:13:00,66.9,65.4,29.92,NE,35,0.0,3.0,95,0.00,,---,0.00,VWS V14.00,2013-06-12 14:13:00,
2013-06-12 10:18:00,67.2,65.1,29.93,NE,35,0.0,3.0,93,0.00,,---,0.00,VWS V14.00,2013-06-12 14:18:00,
2013-06-12 10:23:00,67.5,65.1,29.92,NE,34,0.0,3.0,92,0.00,,---,0.00,VWS V14.00,2013-06-12 14:23:00,
2013-06-12 10:28:00,67.8,65.1,29.92,NE,35,0.0,1.0,91,0.00,,---,0.00,VWS V14.00,2013-06-12 14:28:00,
2013-06-12 10:30:00,67.8,65.1,29.92,NE,34,0.0,3.0,91,0.00,,---,0.00,VWS V14.00,2013-06-12 14:30:00,
2013-06-12 10:33:00,68.1,65.1,29.93,NE,35,0.0,1.0,90,0.00,,---,0.00,VWS V14.00,2013-06-12 14:33:00,
2013-06-12 10:38:00,68.5,65.1,29.93,NE,35,0.0,1.0,89,0.00,,---,0.00,VWS V14.00,2013-06-12 14:38:00,
2013-06-12 10:43:00,68.9,65.2,29.93,NE,35,0.0,2.0,88,0.00,,---,0.00,VWS V14.00,2013-06-12 14:43:00,
2013-06-12 10:48:00,68.8,65.1,29.93,NE,35,1.0,2.0,88,0.00,,---,0.00,VWS V14.00,2013-06-12 14:48:00,
2013-06-12 10:53:00,68.8,65.1,29.92,NE,34,0.0,2.0,88,0.00,,---,0.00,VWS V14.00,2013-06-12 14:53:00,
2013-06-12 10:58:00,69.1,65.4,29.92,NE,34,1.0,2.0,88,0.00,,---,0.00,VWS V14.00,2013-06-12 14:58:00,
2013-06-12 11:00:00,69.0,65.3,29.92,NE,35,1.0,2.0,88,0.00,,---,0.00,VWS V14.00,2013-06-12 15:00:00,
2013-06-12 11:03:00,69.5,65.5,29.92,NE,34,0.0,2.0,87,0.00,,---,0.00,VWS V14.00,2013-06-12 15:03:00,
2013-06-12 11:08:00,70.1,65.7,29.92,NE,35,0.0,2.0,86,0.00,,---,0.00,VWS V14.00,2013-06-12 15:08:00,
2013-06-12 11:13:00,70.7,66.0,29.92,NE,56,3.0,4.0,85,0.00,,---,0.00,VWS V14.00,2013-06-12 15:13:00,
2013-06-12 11:18:00,70.6,65.5,29.92,ENE,57,0.0,4.0,84,0.00,,---,0.00,VWS V14.00,2013-06-12 15:18:00,
2013-06-12 11:23:00,70.6,65.5,29.92,ENE,57,2.0,4.0,84,0.00,,---,0.00,VWS V14.00,2013-06-12 15:23:00,
2013-06-12 11:28:00,70.7,66.0,29.92,East,94,2.0,6.0,85,0.00,,---,0.00,VWS V14.00,2013-06-12 15:28:00,
2013-06-12 11:30:00,70.6,65.5,29.92,NE,56,3.0,4.0,84,0.00,,---,0.00,VWS V14.00,2013-06-12 15:30:00,
2013-06-12 11:33:00,71.0,65.9,29.91,East,94,4.0,7.0,84,0.00,,---,0.00,VWS V14.00,2013-06-12 15:33:00,
2013-06-12 11:38:00,71.1,65.7,29.91,SE,146,4.0,8.0,83,0.00,,---,0.00,VWS V14.00,2013-06-12 15:38:00,
2013-06-12 11:43:00,71.3,66.2,29.90,SSE,148,2.0,8.0,84,0.00,,---,0.00,VWS V14.00,2013-06-12 15:43:00,
2013-06-12 11:48:00,71.5,66.4,29.89,ESE,117,5.0,8.0,84,0.00,,---,0.00,VWS V14.00,2013-06-12 15:48:00,
2013-06-12 11:53:00,71.6,66.2,29.88,East,95,4.0,8.0,83,0.00,,---,0.00,VWS V14.00,2013-06-12 15:53:00,
2013-06-12 11:58:00,71.7,65.9,29.88,ESE,111,6.0,6.0,82,0.00,,---,0.00,VWS V14.00,2013-06-12 15:58:00,
2013-06-12 12:00:00,71.7,65.9,29.88,SE,140,2.0,9.0,82,0.00,,---,0.00,VWS V14.00,2013-06-12 16:00:00,
2013-06-12 12:03:00,72.3,66.5,29.88,ESE,109,5.0,6.0,82,0.00,,---,0.00,VWS V14.00,2013-06-12 16:03:00,
2013-06-12 12:08:00,72.9,66.4,29.88,ESE,110,1.0,6.0,80,0.00,,---,0.00,VWS V14.00,2013-06-12 16:08:00,
2013-06-12 12:13:00,73.3,66.8,29.87,East,88,3.0,7.0,80,0.00,,---,0.00,VWS V14.00,2013-06-12 16:13:00,
2013-06-12 12:18:00,73.3,66.4,29.87,ESE,122,4.0,7.0,79,0.00,,---,0.00,VWS V14.00,2013-06-12 16:18:00,
2013-06-12 12:23:00,73.3,66.0,29.86,East,92,6.0,8.0,78,0.00,,---,0.00,VWS V14.00,2013-06-12 16:23:00,
2013-06-12 12:28:00,72.9,66.0,29.85,ESE,107,7.0,9.0,79,0.00,,---,0.00,VWS V14.00,2013-06-12 16:28:00,
2013-06-12 12:30:00,73.0,65.7,29.86,ESE,109,6.0,8.0,78,0.00,,---,0.00,VWS V14.00,2013-06-12 16:30:00,
2013-06-12 12:33:00,73.1,66.6,29.84,ESE,108,5.0,9.0,80,0.00,,---,0.00,VWS V14.00,2013-06-12 16:33:00,
2013-06-12 12:38:00,73.4,66.1,29.84,ESE,115,2.0,11.0,78,0.00,,---,0.00,VWS V14.00,2013-06-12 16:38:00,
2013-06-12 12:43:00,73.5,66.6,29.83,East,94,6.0,11.0,79,0.00,,---,0.00,VWS V14.00,2013-06-12 16:43:00,
2013-06-12 12:48:00,74.0,67.1,29.83,East,80,3.0,11.0,79,0.00,,---,0.00,VWS V14.00,2013-06-12 16:48:00,
2013-06-12 12:53:00,74.0,66.0,29.84,East,96,4.0,11.0,76,0.00,,---,0.00,VWS V14.00,2013-06-12 16:53:00,
2013-06-12 12:58:00,73.9,66.2,29.84,East,98,6.0,9.0,77,0.00,,---,0.00,VWS V14.00,2013-06-12 16:58:00,
2013-06-12 13:00:00,73.9,66.2,29.84,East,97,0.0,11.0,77,0.00,,---,0.00,VWS V14.00,2013-06-12 17:00:00,
2013-06-12 13:03:00,74.3,65.9,29.85,East,96,2.0,9.0,75,0.00,,---,0.00,VWS V14.00,2013-06-12 17:03:00,
2013-06-12 13:08:00,75.1,66.6,29.86,East,96,0.0,9.0,75,0.00,,---,0.00,VWS V14.00,2013-06-12 17:08:00,
2013-06-12 13:13:00,76.6,66.1,29.86,East,96,4.0,9.0,70,0.00,,---,0.00,VWS V14.00,2013-06-12 17:13:00,
2013-06-12 13:18:00,76.5,66.0,29.86,ENE,76,2.0,9.0,70,0.00,,---,0.00,VWS V14.00,2013-06-12 17:18:00,
2013-06-12 13:23:00,76.8,66.3,29.86,South,183,1.0,9.0,70,0.00,,---,0.00,VWS V14.00,2013-06-12 17:23:00,
2013-06-12 13:28:00,77.2,65.8,29.85,SE,127,0.0,5.0,68,0.00,,---,0.00,VWS V14.00,2013-06-12 17:28:00,
2013-06-12 13:30:00,77.1,66.2,29.85,SSE,160,0.0,9.0,69,0.00,,---,0.00,VWS V14.00,2013-06-12 17:30:00,
2013-06-12 13:33:00,77.4,64.7,29.87,SE,132,1.0,8.0,65,0.00,,---,0.00,VWS V14.00,2013-06-12 17:33:00,
2013-06-12 13:38:00,77.8,65.5,29.87,SE,132,0.0,8.0,66,0.00,,---,0.00,VWS V14.00,2013-06-12 17:38:00,
2013-06-12 13:43:00,78.0,65.7,29.88,SW,214,5.0,8.0,66,0.00,,---,0.00,VWS V14.00,2013-06-12 17:43:00,
2013-06-12 13:48:00,77.6,65.8,29.88,SW,215,5.0,8.0,67,0.00,,---,0.00,VWS V14.00,2013-06-12 17:48:00,
2013-06-12 13:53:00,77.6,65.8,29.88,West,278,2.0,8.0,67,0.00,,---,0.00,VWS V14.00,2013-06-12 17:53:00,
2013-06-12 13:58:00,77.9,66.1,29.88,SW,217,7.0,10.0,67,0.00,,---,0.00,VWS V14.00,2013-06-12 17:58:00,
2013-06-12 14:00:00,77.9,66.5,29.88,SSW,205,4.0,8.0,68,0.00,,---,0.00,VWS V14.00,2013-06-12 18:00:00,
2013-06-12 14:03:00,77.5,65.7,29.88,SSW,207,8.0,10.0,67,0.00,,---,0.00,VWS V14.00,2013-06-12 18:03:00,
2013-06-12 14:08:00,76.9,65.5,29.88,WSW,248,4.0,10.0,68,0.00,,---,0.00,VWS V14.00,2013-06-12 18:08:00,
2013-06-12 14:13:00,76.4,65.1,29.88,WSW,238,9.0,10.0,68,0.00,,---,0.00,VWS V14.00,2013-06-12 18:13:00,
2013-06-12 14:19:00,76.1,65.2,29.87,South,171,5.0,11.0,69,0.00,,---,0.00,VWS V14.00,2013-06-12 18:19:00,
2013-06-12 14:24:00,76.4,64.6,29.86,South,177,5.0,11.0,67,0.00,,---,0.00,VWS V14.00,2013-06-12 18:24:00,
2013-06-12 14:29:00,77.3,65.5,29.85,South,171,2.0,6.0,67,0.00,,---,0.00,VWS V14.00,2013-06-12 18:29:00,
2013-06-12 14:30:00,76.9,65.1,29.86,SW,218,1.0,11.0,67,0.00,,---,0.00,VWS V14.00,2013-06-12 18:30:00,
2013-06-12 14:34:00,77.9,64.8,29.85,SSW,209,3.0,6.0,64,0.00,,---,0.00,VWS V14.00,2013-06-12 18:34:00,
2013-06-12 14:39:00,77.9,64.8,29.85,SSW,194,1.0,6.0,64,0.00,,---,0.00,VWS V14.00,2013-06-12 18:39:00,
2013-06-12 14:44:00,77.9,64.3,29.85,WSW,243,2.0,6.0,63,0.00,,---,0.00,VWS V14.00,2013-06-12 18:44:00,
2013-06-12 14:49:00,78.2,65.0,29.84,WSW,242,3.0,6.0,64,0.00,,---,0.00,VWS V14.00,2013-06-12 18:49:00,
2013-06-12 14:54:00,78.5,64.0,29.84,SSW,206,0.0,6.0,61,0.00,,---,0.00,VWS V14.00,2013-06-12 18:54:00,
2013-06-12 14:59:00,79.3,63.7,29.83,SSE,153,1.0,9.0,59,0.00,,---,0.00,VWS V14.00,2013-06-12 18:59:00,
2013-06-12 15:00:00,79.0,64.4,29.83,SSW,195,2.0,6.0,61,0.00,,---,0.00,VWS V14.00,2013-06-12 19:00:00,
2013-06-12 15:04:00,79.5,63.9,29.82,East,95,4.0,9.0,59,0.00,,---,0.00,VWS V14.00,2013-06-12 19:04:00,
2013-06-12 15:09:00,79.7,64.1,29.82,SSE,151,5.0,11.0,59,0.00,,---,0.00,VWS V14.00,2013-06-12 19:09:00,
2013-06-12 15:14:00,79.4,64.3,29.81,SSE,152,5.0,11.0,60,0.00,,---,0.00,VWS V14.00,2013-06-12 19:14:00,
2013-06-12 15:19:00,79.2,64.1,29.81,SSE,148,4.0,11.0,60,0.00,,---,0.00,VWS V14.00,2013-06-12 19:19:00,
2013-06-12 15:24:00,78.9,64.3,29.81,ESE,108,5.0,11.0,61,0.00,,---,0.00,VWS V14.00,2013-06-12 19:24:00,
2013-06-12 15:29:00,78.9,64.3,29.82,SE,137,4.0,6.0,61,0.00,,---,0.00,VWS V14.00,2013-06-12 19:29:00,
2013-06-12 15:30:00,78.9,63.8,29.82,ESE,116,2.0,11.0,60,0.00,,---,0.00,VWS V14.00,2013-06-12 19:30:00,
2013-06-12 15:34:00,79.0,64.4,29.82,SE,135,4.0,6.0,61,0.00,,---,0.00,VWS V14.00,2013-06-12 19:34:00,
2013-06-12 15:39:00,78.7,64.1,29.83,SW,218,2.0,6.0,61,0.00,,---,0.00,VWS V14.00,2013-06-12 19:39:00,
2013-06-12 15:44:00,78.4,63.4,29.83,SSE,155,2.0,10.0,60,0.00,,---,0.00,VWS V14.00,2013-06-12 19:44:00,
2013-06-12 15:49:00,78.4,63.4,29.84,South,191,3.0,10.0,60,0.00,,---,0.00,VWS V14.00,2013-06-12 19:49:00,
2013-06-12 15:54:00,78.3,63.8,29.84,SW,219,5.0,10.0,61,0.00,,---,0.00,VWS V14.00,2013-06-12 19:54:00,
2013-06-12 15:59:00,78.3,63.8,29.84,SW,219,6.0,8.0,61,0.00,,---,0.00,VWS V14.00,2013-06-12 19:59:00,
2013-06-12 16:00:00,78.3,64.7,29.84,SSW,205,4.0,10.0,63,0.00,,---,0.00,VWS V14.00,2013-06-12 20:00:00,
2013-06-12 16:04:00,78.3,63.3,29.84,South,185,3.0,9.0,60,0.00,,---,0.00,VWS V14.00,2013-06-12 20:04:00,
2013-06-12 16:09:00,78.7,64.1,29.84,SW,219,7.0,9.0,61,0.00,,---,0.00,VWS V14.00,2013-06-12 20:09:00,
2013-06-12 16:14:00,79.0,64.4,29.84,SE,142,2.0,11.0,61,0.00,,---,0.00,VWS V14.00,2013-06-12 20:14:00,
2013-06-12 16:19:00,79.3,65.2,29.83,SSW,194,5.0,11.0,62,0.00,,---,0.00,VWS V14.00,2013-06-12 20:19:00,
2013-06-12 16:24:00,79.5,65.3,29.83,SSW,200,5.0,11.0,62,0.00,,---,0.00,VWS V14.00,2013-06-12 20:24:00,
2013-06-12 16:29:00,79.3,65.2,29.83,SSW,205,6.0,8.0,62,0.00,,---,0.00,VWS V14.00,2013-06-12 20:29:00,
2013-06-12 16:30:00,79.5,64.9,29.83,SW,219,6.0,11.0,61,0.00,,---,0.00,VWS V14.00,2013-06-12 20:30:00,
2013-06-12 16:34:00,78.4,64.3,29.83,SW,219,4.0,10.0,62,0.00,,---,0.00,VWS V14.00,2013-06-12 20:34:00,
2013-06-12 16:39:00,77.8,65.5,29.83,SW,216,4.0,10.0,66,0.00,,---,0.00,VWS V14.00,2013-06-12 20:39:00,
2013-06-12 16:44:00,77.8,65.5,29.83,SSW,209,1.0,10.0,66,0.00,,---,0.00,VWS V14.00,2013-06-12 20:44:00,
2013-06-12 16:49:00,78.3,66.0,29.84,South,189,2.0,10.0,66,0.00,,---,0.00,VWS V14.00,2013-06-12 20:49:00,
2013-06-12 16:54:00,78.5,65.3,29.83,SSW,211,4.0,10.0,64,0.00,,---,0.00,VWS V14.00,2013-06-12 20:54:00,
2013-06-12 16:59:00,78.1,65.4,29.83,SSW,210,0.0,1.0,65,0.00,,---,0.00,VWS V14.00,2013-06-12 20:59:00,
2013-06-12 17:00:00,78.2,65.5,29.83,SSW,209,2.0,10.0,65,0.00,,---,0.00,VWS V14.00,2013-06-12 21:00:00,
2013-06-12 17:04:00,78.2,65.5,29.83,South,184,3.0,6.0,65,0.00,,---,0.00,VWS V14.00,2013-06-12 21:04:00,
2013-06-12 17:09:00,78.0,65.7,29.83,SSE,153,2.0,7.0,66,0.00,,---,0.00,VWS V14.00,2013-06-12 21:09:00,
2013-06-12 17:14:00,77.6,66.2,29.83,South,188,4.0,8.0,68,0.00,,---,0.00,VWS V14.00,2013-06-12 21:14:00,
2013-06-12 17:19:00,77.2,66.2,29.83,SW,214,6.0,8.0,69,0.00,,---,0.00,VWS V14.00,2013-06-12 21:19:00,
2013-06-12 17:24:00,77.1,66.2,29.83,SSW,207,3.0,10.0,69,0.00,,---,0.00,VWS V14.00,2013-06-12 21:24:00,
2013-06-12 17:29:00,76.9,66.0,29.83,SW,215,7.0,8.0,69,0.00,,---,0.00,VWS V14.00,2013-06-12 21:29:00,
2013-06-12 17:30:00,77.0,66.1,29.83,SSW,201,4.0,10.0,69,0.00,,---,0.00,VWS V14.00,2013-06-12 21:30:00,
2013-06-12 17:34:00,76.8,66.3,29.83,SSW,202,2.0,9.0,70,0.00,,---,0.00,VWS V14.00,2013-06-12 21:34:00,
2013-06-12 17:39:00,77.0,66.1,29.83,SW,217,6.0,9.0,69,0.00,,---,0.00,VWS V14.00,2013-06-12 21:39:00,
2013-06-12 17:44:00,76.9,66.0,29.82,SSW,193,4.0,11.0,69,0.00,,---,0.00,VWS V14.00,2013-06-12 21:44:00,
2013-06-12 17:49:00,76.9,65.1,29.82,SSW,205,3.0,11.0,67,0.00,,---,0.00,VWS V14.00,2013-06-12 21:49:00,
2013-06-12 17:54:00,76.9,64.7,29.81,SE,138,6.0,11.0,66,0.00,,---,0.00,VWS V14.00,2013-06-12 21:54:00,
2013-06-12 17:59:00,76.9,64.7,29.81,South,186,2.0,5.0,66,0.00,,---,0.00,VWS V14.00,2013-06-12 21:59:00,
2013-06-12 18:00:00,76.9,64.7,29.81,SE,142,4.0,11.0,66,0.00,,---,0.00,VWS V14.00,2013-06-12 22:00:00,
2013-06-12 18:04:00,76.5,63.9,29.81,SW,215,6.0,8.0,65,0.00,,---,0.00,VWS V14.00,2013-06-12 22:04:00,
2013-06-12 18:09:00,76.0,63.0,29.81,SW,214,4.0,8.0,64,0.00,,---,0.00,VWS V14.00,2013-06-12 22:09:00,
2013-06-12 18:14:00,75.8,62.3,29.81,SSW,209,2.0,8.0,63,0.00,,---,0.00,VWS V14.00,2013-06-12 22:14:00,
2013-06-12 18:19:00,75.7,61.3,29.80,South,172,2.0,9.0,61,0.00,,---,0.00,VWS V14.00,2013-06-12 22:19:00,
2013-06-12 18:24:00,75.8,61.9,29.80,South,184,2.0,9.0,62,0.00,,---,0.00,VWS V14.00,2013-06-12 22:24:00,
2013-06-12 18:29:00,75.7,62.2,29.80,South,189,1.0,5.0,63,0.00,,---,0.00,VWS V14.00,2013-06-12 22:29:00,
2013-06-12 18:30:00,75.8,61.9,29.80,South,188,4.0,9.0,62,0.00,,---,0.00,VWS V14.00,2013-06-12 22:30:00,
2013-06-12 18:34:00,75.7,62.7,29.80,South,189,5.0,5.0,64,0.00,,---,0.00,VWS V14.00,2013-06-12 22:34:00,
2013-06-12 18:39:00,75.6,63.0,29.80,SSW,196,5.0,6.0,65,0.00,,---,0.00,VWS V14.00,2013-06-12 22:39:00,
2013-06-12 18:44:00,75.6,63.0,29.80,SSW,196,1.0,6.0,65,0.00,,---,0.00,VWS V14.00,2013-06-12 22:44:00,
2013-06-12 18:49:00,75.7,63.1,29.80,SSW,203,2.0,6.0,65,0.00,,---,0.00,VWS V14.00,2013-06-12 22:49:00,
2013-06-12 18:54:00,75.6,63.0,29.80,SSW,203,3.0,6.0,65,0.00,,---,0.00,VWS V14.00,2013-06-12 22:54:00,
2013-06-12 18:59:00,75.6,63.5,29.80,SSW,203,1.0,3.0,66,0.00,,---,0.00,VWS V14.00,2013-06-12 22:59:00,
2013-06-12 19:00:00,75.6,63.0,29.80,SSW,203,1.0,6.0,65,0.00,,---,0.00,VWS V14.00,2013-06-12 23:00:00,
2013-06-12 19:04:00,75.6,63.5,29.80,SSW,212,3.0,4.0,66,0.00,,---,0.00,VWS V14.00,2013-06-12 23:04:00,
2013-06-12 19:09:00,75.7,64.0,29.80,SSW,211,3.0,4.0,67,0.00,,---,0.00,VWS V14.00,2013-06-12 23:09:00,
2013-06-12 19:14:00,75.6,63.9,29.80,SSW,212,1.0,4.0,67,0.00,,---,0.00,VWS V14.00,2013-06-12 23:14:00,
2013-06-12 19:19:00,75.4,64.1,29.81,WSW,257,2.0,5.0,68,0.00,,---,0.00,VWS V14.00,2013-06-12 23:19:00,
2013-06-12 19:24:00,75.2,65.2,29.80,NNW,329,2.0,5.0,71,0.00,,---,0.00,VWS V14.00,2013-06-12 23:24:00,
2013-06-12 19:30:00,73.4,65.0,29.80,NNW,328,6.0,9.0,75,0.00,,---,0.00,VWS V14.00,2013-06-12 23:30:00,
2013-06-12 19:35:00,71.7,64.8,29.79,NNE,17,4.0,9.0,79,0.00,,---,0.00,VWS V14.00,2013-06-12 23:35:00,
2013-06-12 19:40:00,70.6,64.5,29.79,North,5,4.0,9.0,81,0.00,,---,0.00,VWS V14.00,2013-06-12 23:40:00,
2013-06-12 19:45:00,69.9,64.2,29.80,NE,38,3.0,9.0,82,0.00,,---,0.00,VWS V14.00,2013-06-12 23:45:00,
2013-06-12 19:50:00,69.7,64.3,29.81,North,11,2.0,9.0,83,0.00,,---,0.00,VWS V14.00,2013-06-12 23:50:00,
2013-06-12 19:55:00,69.4,64.0,29.80,NNE,32,2.0,9.0,83,0.00,,---,0.00,VWS V14.00,2013-06-12 23:55:00,
2013-06-12 20:00:00,69.3,64.3,29.80,ENE,65,2.0,8.0,84,0.00,,---,0.00,VWS V14.00,2013-06-13 00:00:00,
2013-06-12 20:05:00,69.2,64.2,29.80,NNW,331,1.0,9.0,84,0.00,,---,0.00,VWS V14.00,2013-06-13 00:05:00,
2013-06-12 20:10:00,69.2,64.2,29.80,NNE,26,3.0,9.0,84,0.00,,---,0.00,VWS V14.00,2013-06-13 00:10:00,
2013-06-12 20:15:00,69.1,64.1,29.80,East,84,0.0,9.0,84,0.00,,---,0.00,VWS V14.00,2013-06-13 00:15:00,
2013-06-12 20:20:00,69.0,63.6,29.81,NNE,17,3.0,9.0,83,0.00,,---,0.00,VWS V14.00,2013-06-13 00:20:00,
2013-06-12 20:25:00,68.8,63.8,29.80,North,5,1.0,9.0,84,0.00,,---,0.00,VWS V14.00,2013-06-13 00:25:00,
2013-06-12 20:30:00,68.6,63.6,29.81,ENE,63,2.0,6.0,84,0.00,,---,0.00,VWS V14.00,2013-06-13 00:30:00,
2013-06-12 20:35:00,68.5,63.8,29.81,East,101,1.0,6.0,85,0.00,,---,0.00,VWS V14.00,2013-06-13 00:35:00,
2013-06-12 20:40:00,68.3,64.0,29.80,NE,49,2.0,9.0,86,0.00,,---,0.00,VWS V14.00,2013-06-13 00:40:00,
2013-06-12 20:45:00,68.2,63.9,29.80,NE,54,1.0,9.0,86,0.00,,---,0.00,VWS V14.00,2013-06-13 00:45:00,
2013-06-12 20:50:00,67.9,63.9,29.79,East,80,5.0,9.0,87,0.01,,---,0.01,VWS V14.00,2013-06-13 00:50:00,
2013-06-12 20:55:00,67.5,63.8,29.78,ENE,69,2.0,9.0,88,0.01,,---,0.01,VWS V14.00,2013-06-13 00:55:00,
2013-06-12 21:00:00,67.2,63.8,29.78,East,94,4.0,6.0,89,0.01,,---,0.01,VWS V14.00,2013-06-13 01:00:00,
2013-06-12 21:05:00,67.0,64.0,29.77,East,82,1.0,6.0,90,0.02,,---,0.02,VWS V14.00,2013-06-13 01:05:00,
2013-06-12 21:10:00,66.8,63.8,29.77,ENE,72,3.0,6.0,90,0.02,,---,0.02,VWS V14.00,2013-06-13 01:10:00,
2013-06-12 21:15:00,66.8,64.1,29.78,ENE,57,2.0,6.0,91,0.02,,---,0.02,VWS V14.00,2013-06-13 01:15:00,
2013-06-12 21:20:00,66.7,64.0,29.77,ENE,71,1.0,6.0,91,0.02,,---,0.02,VWS V14.00,2013-06-13 01:20:00,
2013-06-12 21:25:00,66.6,63.9,29.77,NNE,24,3.0,6.0,91,0.02,,---,0.02,VWS V14.00,2013-06-13 01:25:00,
2013-06-12 21:30:00,66.6,64.2,29.77,ENE,72,2.0,5.0,92,0.02,,---,0.02,VWS V14.00,2013-06-13 01:30:00,
2013-06-12 21:35:00,66.6,64.2,29.76,NE,35,0.0,6.0,92,0.02,,---,0.02,VWS V14.00,2013-06-13 01:35:00,
2013-06-12 21:40:00,66.6,64.2,29.76,ENE,70,1.0,6.0,92,0.02,,---,0.02,VWS V14.00,2013-06-13 01:40:00,
2013-06-12 21:45:00,66.6,64.5,29.76,NE,45,3.0,7.0,93,0.02,,---,0.02,VWS V14.00,2013-06-13 01:45:00,
2013-06-12 21:50:00,66.7,64.6,29.76,East,96,2.0,8.0,93,0.02,,---,0.02,VWS V14.00,2013-06-13 01:50:00,
2013-06-12 21:55:00,66.7,64.6,29.76,East,95,2.0,8.0,93,0.03,,---,0.03,VWS V14.00,2013-06-13 01:55:00,
2013-06-12 22:00:00,66.6,64.5,29.75,East,95,6.0,9.0,93,0.02,,---,0.03,VWS V14.00,2013-06-13 02:00:00,
2013-06-12 22:05:00,66.6,64.5,29.74,East,85,3.0,9.0,93,0.02,,---,0.03,VWS V14.00,2013-06-13 02:05:00,
2013-06-12 22:10:00,66.6,64.5,29.74,East,89,5.0,9.0,93,0.02,,---,0.03,VWS V14.00,2013-06-13 02:10:00,
2013-06-12 22:15:00,66.5,64.4,29.75,NNE,17,1.0,9.0,93,0.02,,---,0.03,VWS V14.00,2013-06-13 02:15:00,
2013-06-12 22:20:00,66.5,64.4,29.75,North,355,5.0,9.0,93,0.03,,---,0.04,VWS V14.00,2013-06-13 02:20:00,
2013-06-12 22:25:00,66.5,64.4,29.75,East,93,4.0,9.0,93,0.03,,---,0.04,VWS V14.00,2013-06-13 02:25:00,
2013-06-12 22:30:00,66.5,64.4,29.75,East,98,4.0,6.0,93,0.02,,---,0.04,VWS V14.00,2013-06-13 02:30:00,
2013-06-12 22:35:00,66.5,64.4,29.74,NE,44,2.0,8.0,93,0.02,,---,0.04,VWS V14.00,2013-06-13 02:35:00,
2013-06-12 22:40:00,66.3,64.2,29.74,East,85,4.0,9.0,93,0.02,,---,0.04,VWS V14.00,2013-06-13 02:40:00,
2013-06-12 22:45:00,66.3,64.2,29.74,ESE,109,8.0,13.0,93,0.02,,---,0.04,VWS V14.00,2013-06-13 02:45:00,
2013-06-12 22:50:00,66.2,64.1,29.73,East,89,1.0,13.0,93,0.02,,---,0.04,VWS V14.00,2013-06-13 02:50:00,
2013-06-12 22:55:00,66.1,64.0,29.73,ENE,64,2.0,13.0,93,0.03,,---,0.05,VWS V14.00,2013-06-13 02:55:00,
2013-06-12 23:00:00,66.0,63.9,29.73,ENE,74,1.0,5.0,93,0.02,,---,0.05,VWS V14.00,2013-06-13 03:00:00,
2013-06-12 23:05:00,66.0,63.9,29.73,ENE,66,4.0,8.0,93,0.02,,---,0.05,VWS V14.00,2013-06-13 03:05:00,
2013-06-12 23:10:00,66.0,63.9,29.73,NE,51,1.0,8.0,93,0.02,,---,0.05,VWS V14.00,2013-06-13 03:10:00,
2013-06-12 23:15:00,65.9,63.8,29.71,NE,53,2.0,8.0,93,0.02,,---,0.05,VWS V14.00,2013-06-13 03:15:00,
2013-06-12 23:20:00,65.7,63.6,29.71,ENE,62,4.0,8.0,93,0.02,,---,0.05,VWS V14.00,2013-06-13 03:20:00,
2013-06-12 23:25:00,65.6,63.5,29.70,NE,53,6.0,11.0,93,0.02,,---,0.05,VWS V14.00,2013-06-13 03:25:00,
2013-06-12 23:30:00,65.5,63.4,29.70,East,89,4.0,7.0,93,0.01,,---,0.05,VWS V14.00,2013-06-13 03:30:00,
2013-06-12 23:35:00,65.4,63.3,29.70,East,89,5.0,9.0,93,0.01,,---,0.05,VWS V14.00,2013-06-13 03:35:00,
2013-06-12 23:40:00,65.4,63.3,29.70,East,98,7.0,11.0,93,0.01,,---,0.05,VWS V14.00,2013-06-13 03:40:00,
2013-06-12 23:45:00,65.3,62.9,29.70,East,96,4.0,11.0,92,0.01,,---,0.05,VWS V14.00,2013-06-13 03:45:00,
2013-06-12 23:50:00,65.3,62.9,29.71,East,98,5.0,11.0,92,0.01,,---,0.05,VWS V14.00,2013-06-13 03:50:00,
2013-06-12 23:55:00,65.3,62.9,29.71,East,90,6.0,12.0,92,0.01,,---,0.05,VWS V14.00,2013-06-13 03:55:00,